GPS BIIF-3 (PRN 24)

Last updated on Thu Sep 10 2026 00:03:18 GMT+0000 (Coordinated Universal Time)

1 38833U 12053A 26252.57535927 .00000004 00000+0 00000+0 0 9998 2 38833 53.5958 140.1398 0185301 67.2884 294.7292 2.00557120101134
UTC large
Height (km)
Speed (km/s)
/
Latitude / Longitude
Inclination (degrees)
Orbital Period (minutes)
Azimuth
Elevation
Range (km)
Doppler Factor

Next 0 passes for location: London (51.5072 / 0.1276)

No passes found over London.
GPS BIIF-3 (PRN 24)